Location: Unspecified
(0.0000°N, 0.0000°E)
Time: 11:13:17
(UTC+00:00)

ACS3 Solar Sail - Pass Details

Date: 17 May 2025
Orbit: 935 x 1009 km, 97.5° (Epoch: 13 May)

Event Time Altitude Azimuth Distance (km) Brightness Sun altitude
Rises 05:03:00 0° 20° (NNE) 3,639 5.4 -12.6°
Reaches altitude 10° 05:05:29 10° 25° (NNE) 2,705 4.8 -12.0°
Maximum altitude 05:11:26 56° 102° (ESE) 1,157 2.6 -10.6°
Drops below altitude 10° 05:17:30 10° 179° (S) 2,762 4.0 -9.2°
Sets 05:20:03 0° 183° (S) 3,720 4.6 -8.6°
